COSMOS 397 DEB *, 5416

Orbit data source: Space-Track

COSMOS 397 DEB *, 5416 is space debris in LEO originally from a launch on Thu, 25 Feb 1971 UTC launched from the Tyuratam Missile And Space Complex (TTMTR). Debris objects in space refer to the collection of defunct objects orbiting the Earth. Examples of debris include non-operational satellites, rocket bodies, and fragments generated from explosions, collisions, or faulty payload assembly.

Loading next visibility...
Identifier
5416, 1971-015BN
Orbit
LEO
Country
Flag of CISCIS
Related business
Manufacturer
Unknown
Mission
Spacecraft
Bus & Motor
Unknown
Mass
Unknown
Launch date (UTC)
1971-02-25 (55 years ago)
Launch vehicle
Unknown
Launch site
Tyuratam Missile And Space Complex (TTMTR)
Object type
Payload
Rocket body
Debris
Shape & HBR
Unknown shape, 0.1 m
Radar Cross Section
Small (<0.1 m²)

Expand to show TLE details & history
Last TLE update: 17 hours ago

TLE from 17 hours ago
0 COSMOS 397 DEB *
1 05416U 71015BN  25349.47536302  .00001213  00000-0  12230-2 0  9990
2 05416  65.7847  94.5478 0057969  41.3760  35.8748 13.80355752267468
Epoch: 2025-12-15T11:24Z
TLE epoch observation values (Epoch: 2025-12-15T11:24:31.364Z)
Latitude
63.0991°
Longitude
-99.09424°
Altitude
938.155 km
Speed
7.406 km/s
True Right ascension
10h 25m 38s
True Declination
62° 57' 49"
Sunlit
Object was in daylight at epoch
Visualization orbit readout
Latitude
Unknown
Longitude
Unknown
Altitude
Unknown
Speed
Unknown
Apparent Right ascension
Unknown
Apparent Declination
Unknown
Sunlit
N/A
Visualization observer readout
Local Sidereal Time
03:06:11
Azimuth
Unknown
Elevation
Unknown
Doppler factor
Unknown
Orbital elements
Apogee altitude
1,003.689 km
Perigee altitude
918.599 km
Semi-major axis
7,339.281 km
Eccentricity
0.0058
Inclination
65.7847°
RAAN
94.5478°
Arg. of periapsis
41.376°
True anomaly
36.26637°
Mean anomaly
35.8748°
Eccentric anomaly
36.07036°
Mean motion
3.45194 °/min
Orbital period
104.29 mins
BSTAR
0.001223
Loading maneuver chart data...
Computing Atmospheric mass density...

Documentation

Showing up to 5 results
|